Regional Weather Roundup
Issued by NWS

Home | Current Version | Previous Version | Graphics & Text | Print | Product List | Glossary On
Versions: 1 2 3 4 5 6 7 8 9 10 11 12 13 14 15 16 17 18 19 20 21 22 23 24 25 26 27 28 29 30 31 32 33 34 35 36 37 38 39 40 41 42 43 44 45 46 47 48 49 50
000
ASUS43 KMKX 032321
RWRWI

WISCONSIN REGIONAL WEATHER ROUNDUP
NATIONAL WEATHER SERVICE MILWAUKEE/SULLIVAN WI
600 PM CDT SUN MAY 03 2015

NOTE: "FAIR" INDICATES FEW OR NO CLOUDS BELOW 12,000 FEET WITH NO
SIGNIFICANT WEATHER AND/OR OBSTRUCTIONS TO VISIBILITY.

WIZ001-002-006>008-014>016-023>028-040000-
NORTHWEST WISCONSIN

CITY           SKY/WX    TMP DP  RH WIND       PRES   REMARKS
SUPERIOR ARPT  LGT RAIN  57  51  79 W5        29.86R
ASHLAND        CLOUDY    73  34  23 NW21G29   29.82R
HAYWARD        CLOUDY    65  55  70 N8        29.84R
SIREN          PTSUNNY   70  32  24 N17G25    29.85R
CUMBERLAND     CLOUDY    72  45  37 NW10      29.79R
RICE LAKE      CLOUDY    76  47  36 N12       29.78S
CHETEK         CLOUDY    74  56  54 N3        29.76S
LADYSMITH      CLOUDY    77  49  37 W6        29.78F
EAU CLAIRE     MOSUNNY   79  50  36 CALM      29.74S
MENOMONIE      MOSUNNY   79  48  34 CALM      29.73F
NEW RICHMOND   PTSUNNY   75  47  37 N25G39    29.77R
OSCEOLA        LGT RAIN  65  51  61 NW10G22   29.83R
$$

WIZ003>005-009-010-017-018-040000-
NORTH CENTRAL WISCONSIN

CITY           SKY/WX    TMP DP  RH WIND       PRES   REMARKS
MANITOWISH WTR TSTM      66  55  65 N8        29.81R
ARBOR VITAE    PTSUNNY   74  49  40 N6        29.76F
WOODRUFF       PTSUNNY   74  49  40 N6        29.76F
RHINELANDER    MOSUNNY   78  46  32 SW12      29.77F
EAGLE RIVER    LGT RAIN  74  45  35 SW12      29.77S
LAND O LAKES   PTSUNNY   73  49  43 N10G17    29.79R
PHILLIPS       PTSUNNY   76  50  41 W7        29.76F
TOMAHAWK       MOSUNNY   77  47  34 CALM      29.77F
MEDFORD        SUNNY     76  52  42 SW9       29.78S
MERRILL        SUNNY     78  52  40 W9        29.77F
$$

WIZ029-030-035-036-043>047-040000-
CENTRAL WISCONSIN

CITY           SKY/WX    TMP DP  RH WIND       PRES   REMARKS
WAUSAU         SUNNY     78  52  40 SW14      29.76F
MOSINEE        MOSUNNY   75  52  43 SW12      29.79F
MARSHFIELD     PTSUNNY   80  52  37 SW8       29.77F HX  80
STEVENS POINT  MOSUNNY   76  51  41 SW9       29.79F
WAUPACA        MOSUNNY   79  51  37 SW12      29.80S
WAUTOMA        MOSUNNY   79  51  37 S14G22    29.81F
WISC RAPIDS    MOSUNNY   79  51  37 S13       29.79F
CAMP DOUGLAS   SUNNY     78  54  43 S9G21     29.78F
$$

WIZ011>013-019>022-031-037>040-048>050-040000-
NORTHEAST WISCONSIN

CITY           SKY/WX    TMP DP  RH WIND       PRES   REMARKS
ANTIGO         SUNNY     76  52  43 SW14      29.79F
SHAWANO        SUNNY     81  50  34 SW9G20    29.79S HX  80
OCONTO         MOSUNNY   78  55  44 SW14G21   29.78F
STURGEON BAY   MOSUNNY   70  48  46 S10       29.83F
GREEN BAY      MOSUNNY   77  55  46 S15G28    29.81S
MANITOWOC      PTSUNNY   71  53  52 S12       29.84F
APPLETON       MOSUNNY   75  48  38 SW23G30   29.83S
CLINTONVILLE   MOSUNNY   79  50  36 S12       29.79S
OSHKOSH        SUNNY     76  55  48 S21G29    29.83S
$$

WIZ032>034-041-042-053>061-040000-
SOUTHWEST WISCONSIN

CITY           SKY/WX    TMP DP  RH WIND       PRES   REMARKS
LA CROSSE      MOSUNNY   84  53  34 S16       29.73F HX  82
SPARTA         SUNNY     81  50  33 S12       29.77F HX  80
VIROQUA        MOSUNNY   78  55  44 SE14      29.80F
BOSCOBEL       SUNNY     78  58  49 S10       29.81F
PRAIRIE DU CHI MOSUNNY   78  54  44 SE10G22   29.80F
PLATTEVILLE    SUNNY     73  59  61 SE8       29.86F
$$

WIZ056-057-062-063-064-067-068-040000-
SOUTH CENTRAL WISCONSIN

CITY           SKY/WX    TMP DP  RH WIND       PRES   REMARKS
REEDSBURG      SUNNY     74  56  54 S12       29.83S
BARABOO/DELLS  NOT AVBL
LONE ROCK      SUNNY     75  57  53 S13       29.83F
MINERAL POINT  SUNNY     72  55  56 S10       29.87S
MADISON        PTSUNNY   71  55  56 S18       29.87F
MIDDLETON      MOSUNNY   74  51  44 S15       29.87F
WATERTOWN      PTSUNNY   70  55  58 S13G23    29.89F
MONROE         MOSUNNY   68  59  73 SE13      29.89S
JANESVILLE     SUNNY     68  59  73 S13G18    29.90F
$$

WIZ051-052-058>065-066-070>072-040000-
SOUTHEAST WISCONSIN

CITY           SKY/WX    TMP DP  RH WIND       PRES   REMARKS
MILWAUKEE      CLOUDY    69  54  58 SW15G23   29.92R
WAUKESHA       PTSUNNY   66  54  63 SW12G23   29.93R
MILWAUKEE/TIMM PTSUNNY   70  52  52 SW14      29.92R
RACINE         LGT RAIN  69  54  58 SW14G22   29.94R
BURLINGTON     RAIN      60  57  88 SW18G25   29.93S
KENOSHA        LGT RAIN  64  59  83 W9        29.94R
FOND DU LAC    MOSUNNY   75  54  47 S23G29    29.85S
SHEBOYGAN      PTSUNNY   75  54  47 SW23G30   29.87R
WEST BEND      PTSUNNY   72  52  49 SW18G30   29.89S
JUNEAU         MOSUNNY   71  53  53 S17       29.89F
$$

LSZ147-162-040000-
LAKE SUPERIOR

STATION/POSITION TIME  TEMP    WIND        PRES    WAVE
                       AIR SEA DIR/SP/G            HT/PER
                 (UTC) (F)     (DEG/KT/KT) (MB)    (FT/S)
W MID LAKE BUOY  2250   41 36  300/  8/  8 1009.4R   0
DEVILS ISLAND    2300   59     320/ 22/ 24 1009.6R
PORT WING        2200          350/  8/ 17 1009.8
SAXON HARBOR     2300   62     300/ 11     1009.5R
$$

LMZ867-665-643>646-040000-
LAKE MICHIGAN

STATION/POSITION TIME  TEMP    WIND        PRES    WAVE
                       AIR SEA DIR/SP/G            HT/PER
                 (UTC) (F)     (DEG/KT/KT) (MB)    (FT/S)
CHAMBERS ISLAND  2200   71     140/  6/ 12 1009.1F
NORTHPORT PIER   2300   61     180/  9/ 21 1009.1F
KEWAUNEE LAKESHO 2200   50     170/ 13/ 14 1009.8F
SHEBOYGAN LAKESH 2300          210/ 26/ 30 1011.2F
PORT WASHINGTON  2240          230/  7/ 16 1012.5R
ATWATER BUOY     2300   66     220/ 16/ 19 1014.2R
MILWAUKEE LAKESH 2300   68     240/ 16/ 23   N/A
KENOSHA   LAKESH 2300   67     260/ 14/ 18 1013.5R
$$

TC  - TEMPERATURE IN CELSIUS
VSB - VISIBILITY IN STATUTE MILES
WCI - WIND CHILL INDEX
HX  - HEAT INDEX




USA.gov is the U.S. government's official web portal to all federal, state and local government web resources and services.